Change the Weather History Date:

Monday, April 15, 2013

  Actual Average (KDUJ) Record (KDUJ)
Temperature  
Mean Temperature 52 °F 47 °F  
Max Temperature 66 °F 57 °F 79 °F (2003)
Min Temperature 41 °F 36 °F 22 °F (1971)
Degree Days  
Heating Degree Days 12 18  
Month to date heating degree days 318  
Since 1 July heating degree days 6276  
Cooling Degree Days 0 0  
Month to date cooling degree days 0  
Year to date cooling degree days 0  
Growing Degree Days 2 (Base 50)    
Moisture  
Dew Point 39 °F    
Average Humidity 59    
Maximum Humidity 73    
Minimum Humidity 43    
Precipitation  
Precipitation 0.00 in 0.12 in 1.16 in (1972)
Month to date precipitation 1.76  
Sea Level Pressure  
Sea Level Pressure 30.15 in    
Wind  
Wind Speed 8 mph (SSE)    
Max Wind Speed 18 mph    
Max Gust Speed 28 mph    
Visibility 10 miles    
Events      
T = Trace of Precipitation, MM = Missing Value Source: NWS Daily Summary

Daily Weather History Graph

Daily Weather History Graph

Search for Another Location

Airport or City:

Trip Planner

Search our weather history database for the weather conditions in past years. The results will help you decide how hot, cold, wet, or windy it might be!

Date:

Astronomy

Apr. 15, 2013 Rise Set
Actual Time 6:34 AM EDT 7:53 PM EDT
Civil Twilight 6:05 AM EDT 8:22 PM EDT
Nautical Twilight 5:31 AM EDT 8:56 PM EDT
Astronomical Twilight 4:55 AM EDT 9:32 PM EDT
Moon 9:57 AM EDT (4/15) 12:05 AM EDT (4/15)
Length of Visible Light 14h 16m
Length of Day
13h 19m
Waxing Crescent, 24% of the Moon is Illuminated
Apr 15
Waxing Crescent
Apr 18
First Quarter
Apr 25
Full
May 2
Last Quarter
May 9
New

Hourly Weather History & Observations

Time (EDT) Temp. Windchill Dew Point Humidity Pressure Visibility Wind Dir Wind Speed Gust Speed Precip Events Conditions
12:54 AM 41.0 °F - 33.1 °F 73% 30.12 in 10.0 mi Calm Calm - N/A   Mostly Cloudy
1:54 AM 41.0 °F 35.8 °F 33.1 °F 73% 30.12 in 10.0 mi North 8.1 mph - N/A   Overcast
2:54 AM 42.1 °F 37.7 °F 32.0 °F 67% 30.12 in 10.0 mi North 6.9 mph - N/A   Overcast
3:54 AM 44.1 °F 39.0 °F 32.0 °F 63% 30.10 in 10.0 mi NE 9.2 mph - N/A   Mostly Cloudy
4:54 AM 44.1 °F 38.6 °F 32.0 °F 63% 30.12 in 10.0 mi NE 10.4 mph - N/A   Clear
5:54 AM 45.0 °F 39.3 °F 32.0 °F 60% 30.13 in 10.0 mi NE 11.5 mph - N/A   Mostly Cloudy
6:54 AM 45.0 °F 39.7 °F 32.0 °F 60% 30.16 in 10.0 mi NE 10.4 mph - N/A   Mostly Cloudy
7:54 AM 46.0 °F 43.1 °F 34.0 °F 63% 30.18 in 10.0 mi ENE 5.8 mph - N/A   Mostly Cloudy
8:54 AM 48.9 °F - 36.0 °F 61% 30.19 in 10.0 mi NNE 5.8 mph - N/A   Mostly Cloudy
9:54 AM 55.0 °F - 37.9 °F 53% 30.18 in 10.0 mi NW 3.5 mph - N/A   Mostly Cloudy
10:54 AM 61.0 °F - 41.0 °F 48% 30.17 in 10.0 mi SSW 8.1 mph - N/A   Clear
11:54 AM 62.1 °F - 42.1 °F 48% 30.16 in 10.0 mi SSW 13.8 mph 24.2 mph N/A   Mostly Cloudy
12:54 PM 64.9 °F - 42.1 °F 43% 30.14 in 10.0 mi South 12.7 mph 25.3 mph N/A   Mostly Cloudy
1:54 PM 63.0 °F - 42.1 °F 46% 30.15 in 10.0 mi South 18.4 mph 27.6 mph N/A   Overcast
2:54 PM 61.0 °F - 43.0 °F 52% 30.16 in 10.0 mi South 11.5 mph 25.3 mph N/A   Overcast
3:54 PM 62.1 °F - 42.1 °F 48% 30.14 in 10.0 mi South 16.1 mph 25.3 mph N/A   Overcast
4:54 PM 60.1 °F - 43.0 °F 53% 30.15 in 10.0 mi South 15.0 mph 20.7 mph N/A   Overcast
5:54 PM 60.1 °F - 43.0 °F 53% 30.15 in 10.0 mi SSE 11.5 mph 25.3 mph N/A   Overcast
6:54 PM 60.1 °F - 42.1 °F 51% 30.15 in 10.0 mi South 13.8 mph 20.7 mph N/A   Overcast
7:54 PM 59.0 °F - 44.1 °F 58% 30.15 in 10.0 mi South 9.2 mph 21.9 mph N/A   Overcast
8:54 PM 57.9 °F - 46.0 °F 65% 30.16 in 10.0 mi South 10.4 mph 17.3 mph N/A   Overcast
9:54 PM 57.0 °F - 45.0 °F 64% 30.18 in 10.0 mi South 8.1 mph 20.7 mph N/A   Overcast
10:54 PM 55.9 °F - 45.0 °F 67% 30.18 in 10.0 mi South 6.9 mph - N/A   Overcast
11:01 PM 55.4 °F - 44.6 °F 67% 30.18 in 10.0 mi South 8.1 mph - N/A   Overcast
11:54 PM 55.9 °F - 46.9 °F 72% 30.17 in 10.0 mi South 11.5 mph 19.6 mph N/A   Overcast